Regional Weather Roundup
Issued by NWS

Home | Current Version | Previous Version | Graphics & Text | Print | Product List | Glossary On
Versions: 1 2 3 4 5 6 7 8 9 10 11 12 13 14 15 16 17 18 19 20 21 22 23 24 25 26 27
000
ASUS45 KPSR 231710
RWRAZ

ARIZONA HOURLY REGIONAL WEATHER ROUNDUP
NATIONAL WEATHER SERVICE PHOENIX AZ
1000 AM MST SAT JUL 23 2016

NOTE: FAIR INDICATES FEW OR NO CLOUDS BELOW 12,000 FEET WITH NO
SIGNIFICANT WEATHER AND/OR OBSTRUCTIONS TO VISIBILITY.

AZZ001>003-036-231800-
NORTHWEST ARIZONA

CITY           SKY/WX    TMP DP  RH WIND       PRES   REMARKS
BULLHEAD CITY  SUNNY    102  41  12 SW9       29.82S
KINGMAN        SUNNY     98  46  17 SW21G28   30.05R
$$

AZZ004>008-015-016-018-231800-
NORTH CENTRAL ARIZONA

CITY           SKY/WX    TMP DP  RH WIND       PRES   REMARKS
GRAND CANYON   SUNNY     85  44  23 W10       30.32S
WILLIAMS       PTSUNNY   81  45  28 W6        30.41R
PRESCOTT       MOSUNNY   86  53  32 CALM      30.21S
FLAGSTAFF      PTSUNNY   81  43  26 VRB3      30.34S
PAYSON         SUNNY     88  48  25 W8G15     30.23S
PAGE           SUNNY     90  46  21 CALM      30.11F
$$

AZZ009>014-017-231800-
NORTHEAST ARIZONA

CITY           SKY/WX    TMP DP  RH WIND       PRES   REMARKS
WINSLOW        SUNNY     87  50  27 VRB5      30.19S
SAINT JOHNS    SUNNY     84  50  30 CALM      30.24F
SHOW LOW       SUNNY     77  46  33 CALM      30.31F
$$

AZZ023-231800-
GREATER PHOENIX AREA

CITY           SKY/WX    TMP DP  RH WIND       PRES   REMARKS
PHOENIX        PTSUNNY  100  58  24 NW15      29.89S
BUCKEYE        MOSUNNY  100  57  23 W9        29.91S
GLENDALE       MOSUNNY  100  57  23 SW12      29.91S
LUKE AFB       MOSUNNY  100  60  26 SW16      29.88S HX 100
DEER VALLEY    SUNNY     99  55  23 W8        29.91F
SCOTTSDALE     SUNNY     98  55  23 VRB6      29.93F
MESA-FALCON    PTSUNNY  N/A N/A N/A SW6       29.90S BLWGDUST
MESA-GATEWAY   MOSUNNY   97  61  30 NW7       29.93S
CHANDLER       MOSUNNY   99  57  25 N8        29.91S
$$

AZZ027-028-231800-
SOUTHWEST MARICOPA COUNTY AND PINAL COUNTY

CITY           SKY/WX    TMP DP  RH WIND       PRES   REMARKS
CASA GRANDE    SUNNY     99  59  26 SW7       29.94F
GILA BEND      FAIR     101  57  23 W10       29.87S HX 101
$$

AZZ503-504-507>509-231800-
SOUTHEAST ARIZONA

CITY           SKY/WX    TMP DP  RH WIND       PRES   REMARKS
TUCSON         SUNNY     95  57  27 NE6       30.03F
DAVIS-MONTHAN  SUNNY     92  57  30 W5        30.02S
RYAN FIELD     SUNNY     93  57  29 CALM      30.01F
NOGALES        SUNNY     86  57  37 SW5       30.13S
SIERRA VISTA   SUNNY     87  53  31 NW9       30.18S
DOUGLAS        SUNNY     84  59  42 VRB3      30.13S
SAFFORD        SUNNY     95  53  24 W12       30.00F
$$

AZZ020-021-025-026-031-231800-
SOUTHWEST ARIZONA

CITY           SKY/WX    TMP DP  RH WIND       PRES   REMARKS
YUMA           MOSUNNY   99  65  32 S18       29.83S HX 102
$$

CAZ031-033-041-043-047-048-061-231800-
SOUTHERN CALIFORNIA

CITY           SKY/WX    TMP DP  RH WIND       PRES   REMARKS
DOWNTOWN L.A.  SUNNY     86  61  42 CALM      29.82R
L.A. AIRPORT   PTSUNNY   83  60  45 CALM      29.83R
SAN DIEGO      MOSUNNY   70  66  87 SW9       29.84S
BURBANK        MOSUNNY   84  56  38 E8        29.86R SMOKE
ONTARIO        MOSUNNY   92  47  21 VRB3      29.86S
RIVERSIDE      SUNNY     92  48  22 N3        29.85F
PALM SPRINGS   SUNNY     94  69  44 E6        29.88F
EL CENTRO NAS  MOSUNNY   97  71  42 E7        29.81S HAZE    HX 104
IMPERIAL       CLOUDY    97  75  49 S9        29.79F HAZE    HX 109
BLYTHE         SUNNY     99  66  33 S17       29.85F HX 103
NEEDLES        SUNNY    107  45  12 SW14G20   29.84S HX 102
$$

NVZ020-UTZ003-231800-
SOUTHERN NEVADA-UTAH

CITY           SKY/WX    TMP DP  RH WIND       PRES   REMARKS
LAS VEGAS      MOSUNNY  101  28   7 VRB3      29.88S
SALT LAKE CITY MOSUNNY   84  38  19 NW6       30.14F
$$

NMZ009-TXZ055-231800-
NEW MEXICO-WEST TEXAS

CITY           SKY/WX    TMP DP  RH WIND       PRES   REMARKS
ALBUQUERQUE    MOSUNNY   87  49  26 NW5       30.19F
EL PASO        MOSUNNY   92  49  22 S8        30.06F
$$


........................KEY........................
SKY/WX - SKY CONDITION/WEATHER
TMP    - TEMPERATURE IN FAHRENHEIT
DP     - DEW POINT IN FAHRENHEIT
RH     - RELATIVE HUMIDITY IN PERCENT
WIND   - DIRECTION AND SPEED IN MILES PER HOUR (MPH)
VRB    - VARIABLE WIND DIRECTION
PRES   - MEAN SEA LEVEL PRESSURE IN INCHES OF MERCURY
         F - FALLING PRESSURE   R - RISING PRESSURE
         S - STEADY PRESSURE
VSB    - VISIBILITY IN MILES
HX     - HEAT INDEX IN FAHRENHEIT
WCI    - WIND CHILL INDEX IN FAHRENHEIT
TC     - TEMPERATURE IN CELSIUS WHICH IS ALSO KNOWN AS
         TEMPERATURE IN CENTIGRADE
AFB    - AIR FORCE BASE
         LUKE AFB IS LUKE AIR FORCE BASE
         DAVIS-MONTHAN IS DAVIS-MONTHAN AIR FORCE BASE
NAS    - NAVAL AIR STATION
         EL CENTRO NAS IS EL CENTRO NAVAL AIR STATION
N/A    - NOT AVAILABLE





USA.gov is the U.S. government's official web portal to all federal, state and local government web resources and services.